Starlink 31093

operational
NORAD ID: 58717 Int'l Des: 2024-002 Owner: SPXS Country: US Constellation: starlink
LEOCIRCULAR

Starlink 31093について

説明を読み込み中...

リアルタイム位置

3D地球を読み込み中...

次回通過

高度履歴

Altitude vs Time

uPlot chart will show altitude changes over time

軌道要素

1 58717U 24002N 25304.75033427 -.00002326 00000-0 -66435-4 0 9994
2 58717 53.1601 108.8949 0001050 80.1944 279.9175 15.30198366102271
Epoch: Oct 31, 2025 • Age: 22 hours

現在のステータス

高度 476.0 km
速度 7.63 km/s
衛星直下点 27.37°N, 155.47°W
打ち上げ日 Jan 3, 2024
運用期間 1.8 years
タイプ internet

技術仕様

分類 Payload
質量 730.00 kg
乾燥質量 700.00 kg
総質量 730.00 kg
長さ 0.30 m
直径 4.10 m
スパン 29.00 m
形状 Box + pan
製造者 SPXS
バスタイプ Starlink V2M
フェーズステータス In Orbit
所有者/国 SPXS/US

大規模コンステレーション

Loading constellations...